Hourly Weather Roundup
Issued by NWS Central Illinois

Home | Current Version | Previous Version | Text Only | Print | Product List | Glossary On
Versions: 1 2 3 4 5 6 7 8 9 10 11 12 13 14 15 16 17 18 19 20 21 22 23 24 25 26 27 28 29 30 31 32 33 34 35 36 37 38 39 40 41 42 43 44 45 46 47 48 49 50
000
NZUS43 KILX 251310
HWRILX

AREA WEATHER ROUNDUP
NATIONAL WEATHER SERVICE, LINCOLN IL
800 AM CDT FRI JUL 25 2014


CITY           SKY/WX    TMP DP  RH WIND       PRES   REMARKS
BLOOMINGTON    CLOUDY    59  54  83 S5        30.13R
CHAMPAIGN      CLOUDY    60  56  86 SE5       30.10R
DECATUR        CLOUDY    64  58  80 CALM      30.11R
FLORA          PTSUNNY   62  60  91 SE3       30.09R
GALESBURG      CLOUDY    60  57  89 E5        30.08F
JACKSONVILLE   CLOUDY    62  59  88 CALM      30.10R
LACON          LGT RAIN  60  55  85 CALM      30.10R
LAWRENCEVILLE  PTSUNNY   64  59  83 CALM      30.09R
LITCHFIELD     PTSUNNY   62  59  90 CALM      30.11R
$$


CITY           SKY/WX    TMP DP  RH WIND       PRES   REMARKS
LINCOLN        CLOUDY    60  57  87 CALM      30.09R
MACOMB         TSTM      59  58  98 E6        30.08F
MATTOON        PTSUNNY   64  58  80 SE6       30.08R
MT CARMEL AP   PTSUNNY   64  61  88 CALM      30.09S
OLNEY-NOBLE AP PTSUNNY   64  59  82 CALM      30.08S
PARIS          PTSUNNY   60  59  96 CALM      30.11R
PEORIA         LGT RAIN  64  57  78 E3        30.11R
PONTIAC        CLOUDY    61  59  94 CALM      30.11R
RANTOUL        CLOUDY    61  55  81 CALM      30.12R
ROBINSON       PTSUNNY   62  61  98 CALM      30.10S
SPRINGFIELD    CLOUDY    63  59  87 CALM      30.11R
TAYLORVILLE    CLOUDY    61  59  94 SW3       30.10R
$$

...REGIONAL REPORTS...


CITY           SKY/WX    TMP DP  RH WIND       PRES   REMARKS
CHICAGO O`HARE CLOUDY    63  50  62 SW8       30.09S
KANKAKEE       PTSUNNY   62  57  84 S3        30.12R
MOLINE         LGT RAIN  61  58  90 SE7       30.05F FOG
MOUNT VERNON   PTSUNNY   64  57  77 CALM      30.09R
PITTSFIELD     CLOUDY    62  58  86 CALM      30.09S
QUINCY         CLOUDY    62  56  80 E8        30.04F
ROCKFORD       LGT RAIN  60  55  83 S6        30.10F
$$


CITY           SKY/WX    TMP DP  RH WIND       PRES   REMARKS
BURLINGTON     LGT RAIN  62  59  90 N3        30.09R
CEDAR RAPIDS   CLOUDY    61  58  90 S13       29.95F
DES MOINES     CLOUDY    66  58  75 SE16G30   29.91F
KIRKSVILLE     TSTM      63  57  81 E14       30.03R
OTTUMWA        LGT RAIN  61  59  93 S13G28    29.97F FOG
ST LOUIS       CLOUDY    69  58  67 S3        30.09R
$$


CITY           SKY/WX    TMP DP  RH WIND       PRES   REMARKS
TERRE HAUTE    PTSUNNY   62  56  80 S3        30.10R
EVANSVILLE     MOSUNNY   65  56  72 CALM      30.09R
INDIANAPOLIS   PTSUNNY   63  55  75 S5        30.09R
LAFAYETTE      CLOUDY    59  55  87 CALM      30.10R
MADISON        CLOUDY    65  55  70 SW8       30.03F
MILWAUKEE      CLOUDY    63  50  62 SW10      30.04F
$$





USA.gov is the U.S. government's official web portal to all federal, state and local government web resources and services.